Location: Codford Saint Peter
(51.1597°N, 2.0531°W)
Time: 01:21:29
(UTC+00:00)

Cosmos 1725 Rocket - Pass Details

Date: 18 September 2020
Orbit: 961 x 991 km, 82.9° (Epoch: 30 October)

Event Time Altitude Azimuth Distance (km) Brightness Sun altitude
Rises 18:46:58 0° 195° (SSW) 3,684 7.1 -5.9°
Reaches altitude 10° 18:49:30 10° 198° (SSW) 2,736 6.5 -6.2°
Maximum altitude 18:55:46 71° 282° (WNW) 1,037 4.4 -7.2°
Drops below altitude 10° 19:02:01 10° 7° (N) 2,733 6.4 -8.2°
Sets 19:04:33 0° 9° (N) 3,680 7.1 -8.6°
